RH
75 76 81 82 82 82 82 80 76 75 75 77 72 74 75 80 79 92 97 94 99 100 72 82 68 90 69 67 68 45 65 64 82 91 80 72 77 48 52 34 54 84 87 80 79 93 80 24 25 43 43 36 36 30
77 77 76 80 82 82 79 80 75 76 78 78 73 74 75 74 77 80 99 91 93 100 77 75 65 58 45 47 66 73 77 61 82 92 68 55 66 62 44 47 24 66 80 75 54 50 35 35 36 32 39 40 41 40
76 77 76 78 85 82 79 80 79 77 78 74 74 71 72 71 70 73 82 96 96 99 78 63 55 48 43 43 42 65 58 46 63 64 73 80 71 34 62 54 60 47 49 82 61 44 35 37 38 42 38 40 39 40
77 78 78 83 85 83 80 78 79 76 73 76 77 72 70 68 68 70 81 82 84 80 96 56 36 46 36 42 45 48 50 54 57 72 88 79 83 49 46 34 55 72 72 65 59 45 38 36 40 40 42 42 42 41
75 77 84 84 84 81 78 79 77 76 76 75 74 70 67 65 70 65 85 72 64 86 93 68 50 45 44 45 45 46 55 60 92 88 98 76 57 52 44 44 57 34 39 71 70 49 66 48 54 49 57 57 48 43
74 76 86 84 81 79 81 80 79 78 79 77 72 69 67 69 74 84 95 61 68 75 90 81 40 45 42 48 51 52 57 72 88 97 75 59 43 73 81 52 28 23 24 30 39 46 60 66 67 71 68 48 41 40
82 80 86 82 79 79 81 82 81 80 79 76 74 73 70 77 58 86 86 97 81 71 95 84 63 44 42 51 65 60 57 74 85 98 93 62 50 66 67 58 30 25 20 25 52 66 79 72 70 50 44 40 43 37
85 84 85 81 79 80 82 83 81 80 78 73 71 73 76 74 75 69 77 83 90 96 83 96 71 88 66 79 92 83 93 86 98 97 96 82 56 65 72 37 30 26 25 39 61 63 66 63 64 57 42 41 41 40
84 85 83 79 78 80 82 81 81 79 74 71 70 69 70 79 84 53 75 81 82 80 94 99 77 86 87 94 93 100 99 100 98 99 93 78 69 83 49 36 33 32 39 52 57 58 60 61 55 45 42 40 42 43
85 86 83 78 77 80 82 82 81 78 73 71 67 95 100 95 75 70 68 92 98 89 84 83 72 83 91 96 99 99 99 98 97 74 58 94 67 43 36 35 36 38 46 49 61 63 61 54 49 46 40 38 41 42
83 85 83 79 78 81 82 82 81 76 74 71 98 97 86 77 72 76 99 99 90 99 96 66 57 66 74 85 81 92 99 97 92 84 83 71 60 46 37 36 38 37 43 45 46 46 41 45 46 45 42 44 45 46
80 82 82 79 79 80 81 81 80 62 52 63 72 83 73 76 86 94 93 84 96 74 75 75 71 71 88 95 96 95 93 94 90 69 93 74 48 38 39 42 46 48 49 49 42 40 40 42 43 43 46 47 47 46
79 82 82 80 80 80 81 80 78 66 63 61 96 100 88 86 95 94 81 73 85 84 82 90 100 99 98 99 100 100 100 90 52 76 66 44 48 34 39 50 51 46 48 43 39 38 42 45 44 48 50 49 61 78
82 80 81 80 80 81 81 80 78 70 69 77 99 100 94 90 74 56 50 57 74 67 70 96 99 98 97 100 86 99 70 66 78 71 52 59 57 49 50 50 51 52 54 74 51 49 51 53 61 90 86 84 89 89
88 80 80 80 80 80 80 79 77 56 81 100 72 85 91 69 71 77 78 74 61 60 66 92 90 92 100 100 77 72 96 83 60 58 79 67 57 57 59 58 54 59 82 85 93 88 92 89 89 89 88 89 85 90
87 80 75 80 78 80 79 78 69 72 89 80 82 98 83 94 100 99 98 94 71 66 66 82 83 100 98 83 80 76 53 53 74 80 82 68 62 59 62 59 70 92 98 100 99 97 93 90 90 91 88 88 88 86
85 91 80 80 79 80 77 80 89 99 86 90 97 84 88 96 100 100 92 82 80 85 95 68 99 73 65 70 58 49 75 80 78 79 78 75 68 76 90 97 100 100 100 100 99 95 96 94 90 86 89 90 84 85
80 79 84 85 79 82 92 89 77 82 91 78 90 100 94 99 100 100 96 88 89 78 67 64 56 60 86 60 63 78 79 86 85 82 84 87 89 92 81 88 100 97 93 97 92 90 88 86 81 75 83 81 81 83
67 68 81 80 82 91 90 79 68 85 84 81 92 88 91 99 95 90 93 89 88 77 69 65 86 71 72 73 83 80 82 84 82 92 92 97 100 100 100 98 96 98 92 92 91 74 73 76 66 66 66 67 72 74
84 86 81 82 82 69 81 84 84 84 89 86 83 93 87 97 96 99 98 85 73 82 94 93 81 92 86 86 85 87 90 86 86 92 94 96 90 96 98 84 80 85 80 83 78 72 69 69 64 65 69 70 80 80
66 70 73 65 63 59 62 64 82 83 77 82 83 76 88 81 90 97 91 70 94 99 89 87 100 100 98 98 86 84 90 82 87 76 85 95 90 81 83 88 79 69 73 76 80 79 76 75 72 70 88 91 88 84
72 69 68 59 64 61 64 58 66 69 75 84 82 73 91 100 98 96 81 95 95 85 92 94 90 92 90 98 97 95 98 93 88 80 83 83 89 86 86 82 74 85 83 90 76 90 83 71 75 82 88 89 81 81
67 61 60 58 82 85 92 69 86 70 88 90 77 81 91 91 81 67 92 78 80 94 95 90 98 100 97 100 93 96 99 77 77 78 80 77 76 77 78 79 78 92 88 79 72 81 86 74 81 90 86 85 86 86
66 91 99 89 76 95 81 90 68 70 77 84 84 92 77 83 70 78 85 72 85 83 85 98 91 93 91 89 84 85 89 77 76 78 77 75 77 80 73 74 74 72 68 69 74 86 86 91 83 85 85 85 87 89
92 94 98 83 83 86 91 93 91 74 89 84 86 88 84 74 90 82 82 61 78 87 85 87 87 82 82 86 84 88 95 76 78 83 81 68 72 73 74 69 69 72 78 96 92 91 90 89 89 87 83 85 83 85
69 95 90 89 87 82 70 86 85 85 78 86 88 72 86 90 90 80 52 84 88 80 99 96 94 88 84 80 82 81 84 73 70 76 80 73 76 84 90 89 90 88 76 94 99 92 91 87 87 85 84 80 80 83
78 88 68 59 63 66 85 81 67 76 85 82 76 86 88 82 72 61 69 79 75 85 87 88 83 80 81 84 87 84 77 74 83 70 71 68 67 66 86 95 93 82 81 90 94 93 90 88 88 84 83 83 82 80
79 73 80 81 83 72 89 84 85 84 80 65 70 83 78 68 63 76 80 82 88 84 84 90 84 79 81 80 84 92 93 93 96 90 84 82 83 91 96 96 94 88 94 95 97 95 97 88 87 86 83 86 90 86
84 74 71 87 87 82 83 83 80 66 63 69 85 74 76 64 88 85 81 86 86 87 87 93 97 98 96 91 93 90 96 96 98 95 93 92 93 96 95 96 97 93 97 93 91 90 93 95 94 91 92 95 95 93
75 79 80 77 87 79 90 81 89 92 76 77 73 68 61 74 91 86 86 88 90 93 96 99 99 99 98 98 97 97 98 100 100 98 92 90 94 98 94 92 92 93 94 95 89 92 87 90 91 92 90 91 91 92
73 84 82 74 71 74 97 95 91 86 89 85 84 91 83 85 95 90 86 88 93 99 96 94 95 96 93 93 93 94 96 95 94 96 94 98 97 94 92 92 90 94 89 88 88 87 87 87 85 85 86 87 88 88
82 76 72 68 66 78 84 80 81 82 81 81 80 86 88 91 88 93 91 91 91 95 94 94 89 90 96 97 100 100 90 98 92 88 91 90 90 89 89 87 90 88 86 86 85 85 83 82 85 84 83 84 85 85
81 74 73 71 69 66 91 84 65 64 61 63 68 71 74 88 85 94 82 87 92 93 94 98 100 100 96 97 98 97 89 97 92 86 83 84 82 85 86 88 87 86 86 88 88 85 85 81 84 86 84 85 86 86
Wind_Speed
15 14 17 17 17 16 17 17 16 14 14 14 12 12 14 16 16 9 2 9 5 3 5 8 13 15 6 9 14 7 6 8 7 10 6 8 6 12 15 21 19 14 9 10 11 12 20 16 14 16 6 4 2 3
15 15 13 15 15 15 16 16 15 14 13 13 12 11 11 13 17 14 3 7 10 7 4 4 12 18 17 11 8 4 4 4 1 4 6 5 8 12 16 15 20 15 11 10 12 9 13 10 15 9 4 4 3 6
15 15 12 15 16 16 17 16 13 14 13 11 12 11 12 12 16 17 5 6 7 2 6 10 13 16 15 14 12 8 5 7 6 2 2 4 12 13 13 16 11 8 14 12 14 18 20 11 5 3 2 3 5 8
15 15 14 17 17 16 15 14 14 16 15 15 12 11 10 10 12 17 8 5 5 2 5 7 9 15 13 14 17 16 15 1 5 4 3 5 5 13 13 15 12 7 3 15 12 16 15 12 7 7 5 6 7 11
14 14 17 18 16 15 13 13 16 16 16 14 13 12 10 8 8 9 5 5 7 4 4 6 9 15 13 13 18 18 15 13 5 4 4 5 4 6 11 15 11 15 12 9 10 8 9 12 3 7 9 7 8 13
15 14 16 18 17 15 13 15 15 14 14 13 12 12 10 8 10 4 4 8 9 4 3 5 5 13 10 17 17 16 13 11 4 4 5 10 14 4 5 12 19 18 17 12 13 1 3 5 9 12 14 17 17 17
18 17 18 19 17 16 15 15 15 15 14 12 11 11 10 12 8 4 1 4 7 4 3 4 6 5 12 9 9 9 13 8 6 3 5 11 10 5 12 17 18 18 18 7 9 7 3 3 4 10 11 15 14 16
19 19 21 20 19 17 16 15 16 15 13 11 9 8 8 11 9 6 7 12 7 2 3 4 6 5 6 5 4 3 4 6 5 4 3 8 10 9 9 14 14 16 19 5 10 8 7 7 7 11 15 16 18 16
20 20 23 22 20 19 18 18 17 15 13 10 7 4 4 5 4 5 15 13 6 3 4 4 5 3 4 3 3 2 3 5 4 6 7 7 10 12 11 14 16 20 11 10 13 11 7 14 16 17 18 19 18 17
20 23 25 23 21 20 19 19 17 15 13 10 5 2 3 5 12 11 3 3 5 5 5 7 7 6 7 6 5 3 4 4 5 8 4 7 15 20 21 18 15 11 14 14 15 13 15 17 18 19 19 16 15 16
23 25 26 25 24 22 21 20 19 17 13 5 3 3 1 12 6 4 5 6 6 6 7 7 13 10 5 7 4 5 2 3 5 6 7 5 7 18 23 20 12 10 12 15 13 13 15 16 17 18 16 15 14 15
27 27 28 27 25 23 22 22 21 13 7 5 2 2 4 4 4 5 6 5 7 5 6 5 4 4 3 2 3 5 3 2 4 7 4 4 3 3 10 11 10 12 13 13 12 15 16 17 16 15 14 14 14 14
32 29 29 28 26 24 23 22 21 6 7 4 1 5 5 4 7 6 6 5 3 2 2 4 3 3 4 3 3 3 5 5 2 3 4 2 6 2 10 12 11 13 13 9 10 13 15 16 14 14 14 13 14 13
33 28 30 28 26 24 23 22 19 8 5 4 4 6 5 5 7 6 6 5 2 4 4 4 1 2 2 6 3 5 1 2 3 3 4 5 3 4 8 10 13 15 11 9 14 15 16 15 12 11 12 11 13 13
36 29 29 26 25 24 22 21 16 7 2 4 4 5 8 7 5 5 5 5 6 4 5 2 3 3 2 2 3 2 3 5 6 2 4 5 3 6 8 10 12 12 9 10 9 11 12 12 12 13 10 10 11 11
36 27 13 27 26 24 22 17 9 2 5 4 4 4 3 5 4 3 5 6 7 5 2 4 2 2 4 2 3 6 4 3 3 4 4 5 2 6 9 10 9 9 10 10 10 11 11 11 11 13 12 10 10 11
19 6 25 26 25 23 21 6 3 7 4 4 4 4 6 6 6 3 4 5 6 4 3 3 2 2 1 3 4 3 3 5 4 4 3 4 5 5 9 9 8 10 11 11 11 11 11 12 12 12 12 10 10 9
15 19 25 26 20 13 1 5 4 3 5 6 5 1 2 3 5 5 2 3 4 4 4 2 2 2 3 3 2 3 2 1 1 3 2 4 4 6 7 10 8 10 12 10 10 12 12 12 11 8 11 11 10 9
19 17 18 16 9 4 3 2 2 4 5 3 3 4 3 3 4 5 5 5 7 6 3 2 2 4 3 2 4 4 4 2 2 2 2 1 1 6 8 9 10 10 11 11 10 8 8 7 7 8 8 8 7 7
24 16 13 15 12 1 3 2 3 4 4 1 3 3 3 3 3 1 4 5 5 3 3 4 3 2 2 3 3 4 4 1 3 3 4 4 5 8 8 8 8 11 10 10 8 8 8 7 6 6 6 7 7 7
7 6 8 8 5 6 3 3 6 4 3 4 1 4 3 3 3 3 3 2 3 3 4 3 2 2 1 1 2 3 1 3 3 2 6 6 6 8 7 8 9 7 8 7 7 7 6 6 6 6 6 6 5 5
1 2 3 2 4 3 4 4 4 2 3 3 3 3 3 3 3 3 2 4 4 4 2 2 3 3 3 1 1 1 2 2 4 3 7 8 7 7 7 7 7 7 7 6 7 7 6 6 6 6 6 6 5 6
0 2 1 3 4 5 2 2 4 3 4 2 2 3 3 3 1 2 4 4 4 3 4 3 3 1 4 4 4 3 2 4 4 5 7 6 6 7 7 6 6 6 7 6 6 7 6 7 7 6 6 7 6 6
3 1 1 2 3 2 0 3 2 3 2 3 3 4 3 2 1 4 5 4 3 5 6 6 6 5 5 5 4 4 4 3 5 6 5 7 7 6 6 6 5 5 6 7 6 6 7 6 7 6 7 7 7 7
3 1 2 3 1 3 3 2 3 3 4 3 3 4 2 2 3 4 4 3 4 5 5 6 7 7 6 5 4 4 4 5 6 6 5 4 6 6 6 6 6 6 6 6 7 7 7 7 7 7 7 8 9 9
3 3 4 3 2 3 2 3 2 3 2 3 3 1 2 3 4 6 0 5 3 2 4 5 6 6 5 6 6 6 5 4 5 6 5 5 6 7 7 8 7 6 6 5 6 8 8 8 8 9 8 9 10 9
2 3 2 0 4 4 4 3 3 4 4 4 2 2 3 5 6 1 3 4 4 5 5 3 5 5 4 4 5 5 5 3 1 4 6 5 3 3 5 6 6 4 8 7 6 7 8 8 8 8 7 7 8 9
2 3 4 6 4 2 4 4 3 3 3 2 3 5 4 4 2 3 3 4 4 5 5 3 4 1 4 6 6 6 6 5 6 6 6 5 4 4 5 5 5 5 5 6 5 5 4 6 7 7 8 7 7 7
1 2 4 3 4 4 4 3 3 1 2 2 4 4 3 3 3 4 4 4 3 3 4 4 3 3 5 5 5 5 5 6 8 9 10 6 5 4 4 4 5 4 5 5 4 3 4 4 4 5 5 5 5 5
2 2 4 3 3 4 2 2 4 3 3 6 5 8 10 8 3 2 4 5 4 4 3 3 4 5 6 7 6 6 4 2 1 2 6 6 4 6 6 6 6 5 5 6 7 7 8 6 6 6 6 6 5 6
3 3 4 5 5 5 4 6 7 9 9 8 8 10 12 8 4 2 3 3 4 3 4 5 5 5 6 7 7 8 6 3 3 2 3 4 5 6 6 6 5 5 6 7 7 7 7 7 6 7 8 8 9 8
3 4 5 8 10 7 8 6 6 5 7 7 9 8 7 5 6 3 3 4 4 5 5 5 6 6 4 3 3 3 3 6 7 6 6 5 5 5 6 5 5 6 7 7 7 7 8 7 7 7 8 9 9 9
4 7 8 7 4 4 1 5 8 10 9 10 11 9 9 7 6 4 3 4 4 5 7 7 2 4 6 6 6 6 6 6 8 7 7 6 8 7 6 5 5 6 8 7 6 7 8 9 8 9 10 10 11 11
Wind_Direction
237 243 245 242 235 229 221 221 225 229 231 218 210 213 217 205 202 185 204 188 204 259 257 252 209 268 235 232 232 249 209 209 181 214 207 253 253 223 252 251 226 196 213 216 231 241 244 250 266 201 284 320 293 217
244 250 251 240 231 223 216 218 218 221 211 199 199 210 215 205 195 193 232 199 207 253 294 292 249 246 266 256 263 185 245 113 130 268 228 265 240 274 268 254 247 227 203 229 216 237 243 265 283 212 316 303 235 151
240 245 246 256 218 212 213 215 210 200 188 193 200 209 213 211 208 201 214 219 206 266 278 244 235 239 242 250 260 259 260 239 202 236 261 297 255 234 233 238 273 285 289 214 241 258 272 254 241 303 261 222 197 153
244 239 256 233 211 206 206 205 195 180 187 207 196 200 204 207 208 204 217 206 228 241 270 268 219 241 239 228 238 247 267 38 122 191 198 222 258 299 278 277 220 208 270 238 234 249 273 273 260 223 209 140 142 140
248 265 230 204 194 191 190 190 182 185 186 191 192 197 206 212 217 204 227 236 230 267 312 302 298 259 245 232 238 236 243 240 205 204 207 239 277 249 266 272 262 246 237 214 252 263 248 265 326 212 184 141 150 153
239 250 198 187 186 185 182 179 177 175 175 179 187 196 196 182 172 181 226 205 213 207 273 278 285 260 240 222 233 234 227 240 213 227 236 247 242 211 248 261 251 244 252 246 253 45 241 304 287 236 220 181 168 157
234 225 201 187 183 182 179 178 173 171 170 170 178 187 190 169 206 232 317 39 347 175 243 267 253 219 235 216 225 232 227 221 211 229 231 264 260 270 252 257 268 276 279 278 106 123 60 205 222 191 161 149 150 146
212 205 190 184 180 179 177 174 173 170 171 173 176 186 201 189 245 235 166 107 61 334 271 246 255 204 199 193 195 195 210 207 206 214 227 235 248 225 255 251 262 270 258 161 160 160 144 192 181 168 159 153 148 142
203 194 182 180 177 175 174 171 170 170 170 168 167 170 166 208 215 232 137 147 137 228 277 251 250 186 155 165 181 214 225 219 179 214 212 227 224 224 237 255 262 266 209 205 164 162 218 193 181 167 162 158 151 147
197 188 178 177 175 172 168 164 163 162 160 154 167 129 216 208 125 125 135 195 208 206 224 249 270 238 188 170 184 229 194 228 220 215 173 232 242 245 244 258 266 261 188 177 161 159 178 180 173 172 169 159 152 152
189 183 176 172 171 170 166 162 160 159 157 162 176 223 220 131 179 210 216 207 194 216 200 233 230 235 197 224 212 203 238 215 240 174 212 230 236 230 230 235 233 220 191 181 189 181 178 173 171 170 159 148 148 146
187 179 175 170 170 169 167 164 165 173 175 161 170 138 186 200 195 222 209 199 226 241 180 228 235 239 136 186 204 188 247 230 268 150 238 245 248 191 187 181 176 151 163 178 188 178 170 165 167 157 146 147 145 144
182 171 168 168 167 167 168 167 174 156 124 154 227 201 198 174 228 251 199 212 247 236 236 203 210 184 150 191 216 241 228 230 252 233 247 1 16 142 142 148 153 158 157 154 146 142 145 148 140 145 147 137 125 117
169 163 164 162 162 163 164 169 176 158 221 220 218 195 226 191 240 226 259 331 244 259 260 208 130 248 179 188 201 241 218 267 248 258 237 49 19 146 128 140 152 149 138 129 136 138 134 137 120 88 101 118 125 133
156 161 154 154 154 158 163 167 170 196 242 241 231 237 217 247 290 316 333 295 266 273 278 193 155 234 168 236 229 270 224 237 221 297 59 14 332 147 144 147 138 132 122 115 109 113 103 108 108 108 113 120 123 129
142 141 140 149 152 156 158 154 185 194 248 243 246 262 285 281 265 252 263 281 271 264 228 265 248 223 215 240 222 229 256 262 58 34 8 327 250 156 150 134 120 122 114 102 100 107 112 114 125 125 119 121 134 141
125 107 140 147 152 151 151 142 145 228 236 252 248 238 256 271 262 272 309 273 326 266 237 210 231 283 44 230 248 251 308 17 1 343 330 300 285 114 94 109 116 114 108 110 113 118 119 116 122 126 128 135 137 137
109 131 127 132 136 129 105 230 206 245 247 241 253 229 222 273 290 280 248 280 256 243 245 283 333 248 249 262 303 47 343 44 1 333 340 332 41 108 132 130 113 116 119 118 122 125 129 138 139 134 133 140 132 137
124 134 140 150 138 179 166 211 246 279 255 289 275 262 253 252 238 254 258 261 262 289 280 255 260 253 300 16 315 308 309 314 308 119 103 332 110 121 118 117 113 116 118 125 135 138 138 145 132 140 142 161 152 158
111 128 148 191 220 203 35 300 344 282 278 299 239 247 259 271 302 320 268 249 218 223 203 221 247 16 322 347 324 298 312 327 175 162 140 137 144 137 140 145 127 129 127 127 119 128 131 129 134 146 153 169 156 166
177 128 171 218 212 226 230 214 212 232 280 261 340 249 264 258 253 241 237 206 239 223 227 217 212 192 67 337 295 298 247 204 221 201 158 146 154 138 130 118 143 138 142 141 145 137 163 154 150 144 151 160 157 157
100 195 172 180 224 228 260 217 277 293 251 313 257 240 270 249 227 223 201 218 239 221 215 210 184 182 192 224 123 77 103 113 75 91 93 132 148 147 146 148 148 146 144 155 154 157 157 138 143 149 161 153 163 157
217 210 228 211 208 215 217 197 236 231 253 236 234 240 230 233 233 190 247 231 246 166 186 184 142 52 126 135 129 123 153 207 172 152 157 152 144 138 141 151 144 149 147 148 141 147 146 137 151 156 156 158 174 159
184 54 251 236 246 271 303 241 239 252 279 257 242 259 241 253 203 244 251 226 185 161 181 179 175 157 162 176 191 163 169 185 148 154 152 152 146 146 148 142 142 146 145 142 140 134 139 155 157 167 171 184 185 178
216 132 295 221 225 260 234 229 226 241 252 219 252 242 208 232 245 247 245 244 187 193 182 187 193 194 190 181 167 141 175 170 166 155 171 175 131 136 134 139 141 131 133 143 155 161 164 160 174 180 183 192 190 195
238 26 346 334 316 295 320 273 235 280 289 260 244 329 278 259 253 251 345 14 347 241 191 200 198 195 189 176 180 173 157 175 169 157 160 160 163 161 158 157 159 169 182 159 159 172 171 177 182 185 191 198 197 196
64 11 341 323 295 288 274 256 276 266 257 247 251 247 235 244 243 80 27 27 333 359 331 215 221 212 182 152 100 109 134 132 31 126 132 137 125 152 164 173 182 136 157 172 174 180 181 184 189 194 202 195 200 206
47 358 338 324 294 272 274 276 253 251 282 354 273 235 241 252 344 22 2 353 323 301 291 342 344 322 128 147 147 140 122 117 106 101 107 102 100 102 98 86 78 87 126 162 171 174 181 185 192 194 203 203 194 195
264 334 310 272 274 243 242 256 278 337 332 285 279 277 290 345 3 314 322 329 310 279 226 183 160 106 109 129 152 158 151 162 167 175 183 181 178 175 147 132 129 134 130 135 114 137 152 158 173 185 189 194 167 166
293 339 288 258 244 250 215 228 275 307 264 276 290 283 278 269 260 202 274 272 258 251 241 230 171 180 169 168 160 158 167 185 256 229 206 203 172 123 156 166 160 149 143 146 145 127 127 126 127 129 134 137 149 152
313 276 256 251 263 289 323 320 286 266 254 257 258 259 271 290 281 217 272 283 283 249 205 205 200 194 183 180 179 173 175 170 154 121 83 91 117 144 148 149 152 154 159 156 156 161 157 160 155 156 160 154 148 148
255 258 295 282 291 313 305 290 301 282 285 275 270 260 254 242 259 152 34 316 265 244 227 220 215 201 189 166 164 107 78 136 164 158 144 140 140 140 145 147 155 163 162 161 164 158 168 161 154 155 154 149 148 140
271 270 270 282 276 278 338 308 289 289 274 272 271 273 272 257 264 68 70 18 350 340 349 342 316 142 161 161 138 126 124 117 122 126 134 131 139 146 147 152 157 157 156 157 157 162 166 162 154 148 149 143 139 139